Regional Weather Roundup
Issued by NWS

Home | Current Version | Previous Version | Graphics & Text | Print | Product List | Glossary On
Versions: 1 2 3 4 5 6 7 8 9 10 11 12 13 14 15 16 17 18 19 20 21 22 23 24 25 26 27 28 29 30 31 32 33 34 35 36 37 38 39 40 41 42 43 44 45 46 47 48 49 50
000
ASUS43 KLSX 020607
RWRMO

WEATHER SUMMARY FOR MISSOURI
NATIONAL WEATHER SERVICE SPRINGFIELD MO
1200 AM CST MON MAR 02 2015

NOTE: "FAIR" INDICATES FEW OR NO CLOUDS BELOW 12,000 FEET WITH NO
       SIGNIFICANT WEATHER AND/OR OBSTRUCTIONS TO VISIBILITY.
       CURRENT SKY AND/OR WEATHER CONDITIONS ARE NOT AVAILABLE FOR
       CHILLICOTHE AND FARMINGTON.

MOZ001>031-035>038-043-044-053-054-020700-
...NORTHERN AND WESTERN MISSOURI...

CITY           SKY/WX    TMP DP  RH WIND       PRES   REMARKS
KANSAS CTY INT PTCLDY    28  19  69 W5        30.49R WCI  23
6HR MIN TEMP:  23; 6HR MAX TEMP:  31;

KANSAS C DTWN  PTCLDY    26  21  81 CALM      30.51R
6HR MIN TEMP:  24; 6HR MAX TEMP:  33;

LEE`S SUMMIT   MOCLDY    26  19  74 CALM      30.50R
6HR MIN TEMP:  25; 6HR MAX TEMP:  31;

ST JOSEPH      MOCLDY    25  21  85 CALM      30.51R
6HR MIN TEMP:  25; 6HR MAX TEMP:  31;

CHILLICOTHE      N/A     25  20  81 CALM      30.51R
6HR MIN TEMP:  25; 6HR MAX TEMP:  31;

KIRKSVILLE     CLOUDY    21  18  88 W3        30.49R
6HR MIN TEMP:  20; 6HR MAX TEMP:  27;


$$
MOZ066>068-077>081-088>096-101>105-020700-
...SOUTHWEST MISSOURI...

CITY           SKY/WX    TMP DP  RH WIND       PRES   REMARKS
SPRINGFIELD    PTCLDY    25  20  81 NE3       30.45F
6HR MIN TEMP:  23; 6HR MAX TEMP:  30;

JOPLIN         PTCLDY    24  19  81 E3        30.49S
6HR MIN TEMP:  24; 6HR MAX TEMP:  30;


$$
MOZ032>034-039>042-045>050-055>058-069>072-020700-
...CENTRAL MISSOURI...

CITY           SKY/WX    TMP DP  RH WIND       PRES   REMARKS
COLUMBIA       PTCLDY    18  16  92 CALM      30.49R FOG
6HR MIN TEMP:  17; 6HR MAX TEMP:  29;

JEFFERSON CITY PTCLDY    15  13  91 W3        30.52R
6HR MIN TEMP:  15; 6HR MAX TEMP:  30;

ROLLA          CLEAR     18  15  88 N5        30.45R WCI  11
6HR MIN TEMP:  11; 6HR MAX TEMP:  28;

SEDALIA        PTCLDY    21  17  84 SW7       30.50S WCI  12
6HR MIN TEMP:  21; 6HR MAX TEMP:  27;

WHITEMAN AFB   CLEAR     12   9  87 SW3       30.49R
WARRENSBURG    MOCLDY    18  16  93 CALM      30.50S
OSAGE BEACH    PTCLDY    18  16  93 CALM      30.48S

$$
MOZ051-052-059>065-020700-
...EAST CENTRAL MISSOURI...

CITY           SKY/WX    TMP DP  RH WIND       PRES   REMARKS
ST LOUIS INTL  PTCLDY    22  16  78 CALM      30.50R
6HR MIN TEMP:  19; 6HR MAX TEMP:  31;

SPIRIT OF STL  PTCLDY    14  12  92 CALM      30.50R FOG
6HR MIN TEMP:  12; 6HR MAX TEMP:  31;

ST CHARLES     PTCLDY    11   8  88 W3        30.50R FOG
6HR MIN TEMP:  10; 6HR MAX TEMP:  30;


$$
MOZ072>076-082>087-097>100-106>115-020700-
...SOUTH CENTRAL AND SOUTHEAST MISSOURI...

CITY           SKY/WX    TMP DP  RH WIND       PRES   REMARKS
CAPE GIRARDEAU PTCLDY    31  26  82 N10       30.46S WCI  22
6HR MIN TEMP:  31; 6HR MAX TEMP:  35;

FARMINGTON     PTCLDY    27  21  80 N6        30.48F WCI  20
6HR MIN TEMP:  27; 6HR MAX TEMP:  30;

POPLAR BLUFF   PTCLDY    33  25  72 N10       30.45R WCI  25
6HR MIN TEMP:  33; 6HR MAX TEMP:  37; 6HR PCP: TRACE;

WEST PLAINS    CLOUDY    29  23  78 N8        30.45R WCI  21
6HR MIN TEMP:  29; 6HR MAX TEMP:  34;


$$



USA.gov is the U.S. government's official web portal to all federal, state and local government web resources and services.